Location: Lafig�re
(44.4503°N, 4.0357°E)
Time: 00:56:15
(UTC+00:00)

Transit 4A - Pass Details

Date: 28 January 2021
Orbit: 866 x 979 km, 66.8° (Epoch: 24 February)

Event Time Altitude Azimuth Distance (km) Brightness Sun altitude
Rises 01:20:54 0° 332° (NNW) 3,638 - -58.4°
Reaches altitude 10° 01:23:51 10° 343° (NNW) 2,673 - -58.0°
Maximum altitude 01:29:14 30° 43° (NE) 1,613 - -57.4°
Drops below altitude 10° 01:34:27 10° 103° (ESE) 2,593 - -56.7°
Sets 01:37:15 0° 114° (ESE) 3,512 - -56.4°
